DL9BGG-13 Weather Reports


Display with metric or nautical units.
time (UTC)temp
F
wind
direction
speed
MPH
gust
MPH
rain 1hr
in
rain 24hr
in
rain mn
in
humidity
%
barometer
mb
20260503222603 55 315 1.0 0.0 0.00 0.61 0.00 93 1055.2
20260503222449 55 315 4.0 0.0 0.00 0.61 0.00 93 1055.3
20260503222338 55 270 10.0 0.0 0.00 0.61 0.00 93 1055.3
20260503222231 55 292 6.0 0.0 0.00 0.61 0.00 93 1055.3
20260503222125 55 292 14.0 0.0 0.00 0.61 0.00 93 1055.3
20260503222007 55 270 2.0 0.0 0.00 0.61 0.00 93 1055.3
20260503221859 55 292 4.0 0.0 0.00 0.61 0.00 93 1055.3
20260503221737 55 315 15.0 0.0 0.00 0.61 0.00 93 1055.3
20260503221616 56 292 6.0 0.0 0.00 0.61 0.00 93 1055.3
20260503221455 56 292 6.0 0.0 0.00 0.61 0.00 93 1055.3
20260503221318 56 292 11.0 0.0 0.00 0.61 0.00 93 1055.3
20260503221149 56 270 6.0 0.0 0.00 0.61 0.00 93 1055.3
20260503221037 56 315 0.0 0.0 0.00 0.61 0.00 93 1055.2
20260503220930 56 225 8.0 0.0 0.00 0.61 0.00 93 1055.2
20260503220802 56 292 6.0 0.0 0.00 0.61 0.00 93 1055.3
20260503220659 56 315 8.0 0.0 0.00 0.61 0.00 93 1055.2
20260503220553 56 292 6.0 0.0 0.00 0.61 0.00 93 1055.3
20260503220438 56 270 6.0 0.0 0.00 0.61 0.00 93 1055.4
20260503220324 56 270 1.0 0.0 0.00 0.61 0.00 93 1055.3
20260503220212 56 292 7.0 0.0 0.00 0.61 0.00 93 1055.3
20260503220058 56 292 4.0 0.0 0.00 0.61 0.00 93 1055.3
20260503215946 56 315 7.0 0.0 0.00 0.61 0.00 93 1055.3
20260503215840 56 270 7.0 0.0 0.00 0.61 0.00 93 1055.2
20260503215728 56 292 4.0 0.0 0.00 0.61 0.00 93 1055.3
20260503215606 56 292 0.0 0.0 0.00 0.61 0.00 93 1055.2
20260503215453 56 315 7.0 0.0 0.00 0.61 0.00 93 1055.2
20260503215348 56 315 0.0 0.0 0.00 0.61 0.00 93 1055.2
20260503215227 56 270 6.0 0.0 0.00 0.61 0.00 93 1055.2
20260503215115 56 225 5.0 0.0 0.00 0.61 0.00 93 1055.2
20260503215011 56 292 5.0 0.0 0.00 0.61 0.00 93 1055.2
20260503214905 56 315 9.0 0.0 0.00 0.61 0.00 93 1055.1
20260503214759 56 247 1.0 0.0 0.00 0.61 0.00 93 1055.1
20260503214646 56 292 6.0 0.0 0.00 0.61 0.00 93 1055.1
20260503214541 56 292 4.0 0.0 0.00 0.61 0.00 93 1055.0
20260503214435 56 315 7.0 0.0 0.00 0.61 0.00 93 1055.1
20260503214258 56 292 4.0 0.0 0.00 0.61 0.00 93 1055.0
20260503214154 56 315 10.0 0.0 0.00 0.61 0.00 93 1055.1
20260503214049 56 315 8.0 0.0 0.00 0.61 0.00 93 1055.1
20260503213943 56 292 11.0 0.0 0.00 0.61 0.00 93 1055.1
20260503213822 56 315 8.0 0.0 0.00 0.61 0.00 93 1055.1
20260503213701 56 270 4.0 0.0 0.00 0.61 0.00 93 1055.1
20260503213556 56 292 10.0 0.0 0.00 0.61 0.00 93 1055.1
20260503213450 56 315 7.0 0.0 0.00 0.61 0.00 93 1055.1
20260503213322 56 292 0.0 0.0 0.00 0.61 0.00 93 1055.1
20260503213208 56 292 8.0 0.0 0.00 0.61 0.00 93 1055.1
20260503213103 56 292 4.0 0.0 0.00 0.61 0.00 93 1055.1
20260503212950 56 337 6.0 0.0 0.00 0.61 0.00 93 1055.1
20260503212831 56 270 0.0 0.0 0.00 0.61 0.00 93 1055.0
20260503212724 56 315 0.0 0.0 0.00 0.61 0.00 93 1055.0
20260503212611 56 292 13.0 0.0 0.00 0.61 0.00 93 1055.0
20260503212506 57 270 7.0 0.0 0.00 0.61 0.00 93 1055.1
20260503212352 57 315 6.0 0.0 0.00 0.61 0.00 93 1055.0
20260503212233 57 315 6.0 0.0 0.00 0.61 0.00 93 1055.0
20260503212126 57 292 6.0 0.0 0.00 0.61 0.00 93 1055.1
20260503212014 57 292 0.0 0.0 0.00 0.61 0.00 93 1055.0
20260503211908 57 247 7.0 0.0 0.00 0.61 0.00 93 1055.1
20260503211803 57 315 0.0 0.0 0.00 0.61 0.00 93 1055.1
20260503211650 57 292 8.0 0.0 0.00 0.61 0.00 93 1055.2
20260503211539 57 270 4.0 0.0 0.00 0.61 0.00 93 1055.2
20260503211433 57 292 0.0 0.0 0.00 0.61 0.00 93 1055.1
20260503211319 57 292 0.0 0.0 0.00 0.61 0.00 93 1055.1
20260503211159 57 270 0.0 0.0 0.00 0.61 0.00 93 1055.2
20260503211044 57 270 7.0 0.0 0.00 0.61 0.00 93 1055.1
20260503210925 57 315 0.0 0.0 0.00 0.61 0.00 93 1055.2
20260503210818 57 270 10.0 0.0 0.00 0.61 0.00 93 1055.1
20260503210706 57 270 6.0 0.0 0.00 0.61 0.00 93 1055.1
20260503210602 57 292 0.0 0.0 0.00 0.61 0.00 93 1055.1
20260503210457 57 270 0.0 0.0 0.00 0.61 0.00 93 1055.2
20260503210344 57 315 8.0 0.0 0.00 0.61 0.00 93 1055.1
20260503210237 57 292 0.0 0.0 0.00 0.61 0.00 93 1055.2
20260503210132 57 292 0.0 0.0 0.00 0.61 0.00 93 1055.2
20260503210019 57 292 0.0 0.0 0.00 0.61 0.00 93 1055.1
20260503205906 57 270 0.0 0.0 0.00 0.61 0.00 93 1055.2
20260503205801 57 292 0.0 0.0 0.00 0.61 0.00 93 1055.2
20260503205649 57 315 5.0 0.0 0.00 0.61 0.00 93 1055.2
20260503205534 57 337 0.0 0.0 0.00 0.61 0.00 93 1055.2
20260503205421 57 270 0.0 0.0 0.00 0.61 0.00 93 1055.2
20260503205300 57 292 0.0 0.0 0.00 0.61 0.00 93 1055.2
20260503205147 57 270 7.0 0.0 0.00 0.61 0.00 93 1055.1
20260503205036 57 292 0.0 0.0 0.00 0.61 0.00 93 1055.1
20260503204930 57 270 0.0 0.0 0.00 0.61 0.00 93 1055.1
20260503204817 57 270 0.0 0.0 0.00 0.61 0.00 93 1055.1
20260503204711 57 315 0.0 0.0 0.00 0.61 0.00 93 1055.0
20260503204605 57 292 0.0 0.0 0.00 0.61 0.00 93 1055.1
20260503204436 57 292 0.0 0.0 0.00 0.61 0.00 93 1055.1
20260503204323 57 270 0.0 0.0 0.00 0.61 0.00 93 1055.1
20260503204210 57 270 0.0 0.0 0.00 0.61 0.00 93 1055.1
20260503204049 57 292 0.0 0.0 0.00 0.61 0.00 93 1055.2
20260503203944 57 292 0.0 0.0 0.00 0.61 0.00 93 1055.1
20260503203831 57 292 0.0 0.0 0.00 0.61 0.00 93 1055.0
20260503203726 57 270 0.0 0.0 0.00 0.61 0.00 93 1055.1
20260503203612 57 270 0.0 0.0 0.00 0.61 0.00 93 1055.1
20260503203459 57 292 0.0 0.0 0.00 0.61 0.00 93 1055.0
20260503203338 57 270 0.0 0.0 0.00 0.61 0.00 93 1055.0
20260503203225 57 247 0.0 0.0 0.00 0.61 0.00 93 1055.1
20260503203112 57 270 0.0 0.0 0.00 0.61 0.00 93 1055.0
20260503202950 57 337 0.0 0.0 0.00 0.61 0.00 93 1055.0
20260503202829 57 315 0.0 0.0 0.00 0.61 0.00 93 1055.1
20260503202719 57 270 0.0 0.0 0.00 0.61 0.00 93 1055.1
20260503202612 57 292 0.0 0.0 0.00 0.61 0.00 93 1055.1
20260503202506 57 270 0.0 0.0 0.00 0.61 0.00 93 1055.0
20260503202353 57 292 4.0 0.0 0.00 0.61 0.00 93 1055.0
20260503202249 57 270 0.0 0.0 0.00 0.61 0.00 93 1055.0
20260503202143 57 270 0.0 0.0 0.00 0.61 0.00 93 1055.0
20260503202030 57 270 0.0 0.0 0.00 0.61 0.00 93 1055.0
20260503201910 57 270 0.0 0.0 0.00 0.61 0.00 93 1055.0
20260503201806 57 292 0.0 0.0 0.00 0.61 0.00 93 1055.0
20260503201659 57 292 0.0 0.0 0.00 0.61 0.00 93 1055.0
20260503201545 56 270 0.0 0.0 0.00 0.61 0.00 93 1055.0
20260503201433 57 270 0.0 0.0 0.00 0.61 0.00 93 1055.0
20260503201312 56 270 0.0 0.0 0.00 0.61 0.00 93 1055.0
20260503201158 56 292 0.0 0.0 0.00 0.61 0.00 93 1055.0
20260503201047 56 270 0.0 0.0 0.00 0.61 0.00 93 1055.0
20260503200940 56 270 0.0 0.0 0.00 0.61 0.00 93 1055.0
20260503200837 56 292 0.0 0.0 0.00 0.61 0.00 93 1055.0
20260503200722 56 292 0.0 0.0 0.00 0.61 0.00 93 1055.0
20260503200608 56 292 0.0 0.0 0.00 0.61 0.00 93 1055.0
20260503200456 56 270 0.0 0.0 0.00 0.61 0.00 93 1055.0
20260503200350 56 270 0.0 0.0 0.00 0.61 0.00 93 1055.1
20260503200240 56 270 0.0 0.0 0.00 0.61 0.00 93 1055.1
20260503200133 56 292 5.0 0.0 0.00 0.61 0.00 93 1055.0
20260503200020 56 270 0.0 0.0 0.00 0.61 0.00 93 1055.1
20260503195859 56 292 0.0 0.0 0.00 0.61 0.00 93 1055.0
20260503195753 56 270 0.0 0.0 0.00 0.61 0.00 93 1054.9
20260503195640 56 292 0.0 0.0 0.00 0.61 0.00 93 1055.0
20260503195535 56 270 0.0 0.0 0.00 0.61 0.00 93 1054.9
20260503195414 56 270 0.0 0.0 0.00 0.61 0.00 93 1054.9
20260503195300 56 270 0.0 0.0 0.00 0.61 0.00 93 1054.9
20260503195131 56 247 0.0 0.0 0.00 0.61 0.00 93 1054.8
20260503195010 56 270 0.0 0.0 0.00 0.61 0.00 93 1054.9
20260503194850 56 292 0.0 0.0 0.00 0.61 0.00 93 1054.9
20260503194736 56 270 4.0 0.0 0.00 0.61 0.00 93 1054.8
20260503194631 56 315 0.0 0.0 0.00 0.61 0.00 93 1054.8
20260503194527 56 315 0.0 0.0 0.00 0.61 0.00 93 1054.8
20260503194421 56 292 0.0 0.0 0.00 0.61 0.00 93 1054.7
20260503194317 56 292 0.0 0.0 0.00 0.61 0.00 93 1054.7
20260503194210 56 292 0.0 0.0 0.00 0.61 0.00 93 1054.8
20260503194050 56 315 0.0 0.0 0.00 0.61 0.00 93 1054.8
20260503193937 56 292 0.0 0.0 0.00 0.61 0.00 93 1054.8
20260503193834 56 270 0.0 0.0 0.00 0.61 0.00 93 1054.8
20260503193726 56 292 0.0 0.0 0.00 0.61 0.00 93 1054.8
20260503193606 56 292 0.0 0.0 0.00 0.61 0.00 93 1054.8
20260503193455 56 292 0.0 0.0 0.00 0.61 0.00 93 1054.6
20260503193346 56 292 0.0 0.0 0.00 0.61 0.00 93 1054.7
20260503193226 56 292 0.0 0.0 0.00 0.61 0.00 93 1054.6
20260503193114 57 315 0.0 0.0 0.02 0.61 0.00 93 1054.6
20260503192959 57 315 0.0 0.0 0.02 0.61 0.00 93 1054.6
20260503192847 57 315 0.0 0.0 0.02 0.61 0.00 93 1054.5
20260503192717 57 292 0.0 0.0 0.02 0.61 0.00 93 1054.6
20260503192606 57 292 2.0 0.0 0.02 0.61 0.00 93 1054.5
20260503192459 57 292 0.0 0.0 0.02 0.61 0.00 92 1054.6
20260503192346 57 292 5.0 0.0 0.02 0.61 0.00 93 1054.4
20260503192233 57 292 0.0 0.0 0.02 0.61 0.00 92 1054.6
20260503192113 57 292 0.0 0.0 0.02 0.61 0.00 92 1054.5
20260503191958 57 292 5.0 0.0 0.02 0.61 0.00 92 1054.5
20260503191839 57 292 0.0 0.0 0.02 0.61 0.00 92 1054.5
20260503191724 57 337 0.0 0.0 0.02 0.61 0.00 92 1054.4
20260503191610 57 270 0.0 0.0 0.02 0.61 0.00 92 1054.4
20260503191441 57 270 0.0 0.0 0.02 0.61 0.00 92 1054.4
20260503191312 57 292 0.0 0.0 0.02 0.61 0.00 92 1054.4
20260503191151 57 270 0.0 0.0 0.02 0.61 0.00 92 1054.4
20260503191047 57 315 0.0 0.0 0.02 0.61 0.00 92 1054.4
20260503190942 57 292 4.0 0.0 0.02 0.61 0.00 92 1054.4
20260503190836 57 292 0.0 0.0 0.02 0.61 0.00 92 1054.4
20260503190716 57 270 0.0 0.0 0.02 0.61 0.00 92 1054.4
20260503190602 57 270 0.0 0.0 0.02 0.61 0.00 92 1054.3
20260503190448 57 292 0.0 0.0 0.02 0.61 0.00 93 1054.3
20260503190319 57 270 0.0 0.0 0.02 0.61 0.00 93 1054.3
20260503190200 57 270 0.0 0.0 0.02 0.61 0.00 93 1054.3
20260503190045 58 270 0.0 0.0 0.02 0.61 0.00 93 1054.3
20260503185924 58 315 0.0 0.0 0.02 0.61 0.00 93 1054.3
20260503185818 58 270 5.0 0.0 0.02 0.61 0.00 93 1054.3
20260503185649 58 292 0.0 0.0 0.02 0.61 0.00 92 1054.3
20260503185536 58 292 0.0 0.0 0.02 0.61 0.00 92 1054.2
20260503185424 58 292 0.0 0.0 0.02 0.61 0.00 92 1054.2
20260503185309 58 315 0.0 0.0 0.02 0.61 0.00 92 1054.2
20260503185149 58 270 4.0 0.0 0.02 0.61 0.00 92 1054.1
20260503185027 58 292 0.0 0.0 0.02 0.61 0.00 92 1054.2
20260503184859 58 270 0.0 0.0 0.02 0.61 0.00 92 1054.2
20260503184746 58 270 3.0 0.0 0.02 0.61 0.00 93 1054.2
20260503184632 58 315 4.0 0.0 0.02 0.61 0.00 93 1054.2
20260503184521 58 270 0.0 0.0 0.02 0.61 0.00 92 1054.2
20260503184413 58 292 6.0 0.0 0.02 0.61 0.00 93 1054.2
20260503184244 58 292 0.0 0.0 0.02 0.61 0.00 93 1054.3
20260503184131 58 292 0.0 0.0 0.02 0.61 0.00 93 1054.2
20260503184010 58 270 0.0 0.0 0.02 0.61 0.00 93 1054.3
20260503183857 58 337 0.0 0.0 0.02 0.61 0.00 93 1054.3
20260503183743 58 292 7.0 0.0 0.02 0.61 0.00 93 1054.2
20260503183623 58 247 0.0 0.0 0.02 0.61 0.00 93 1054.3
20260503183519 58 270 0.0 0.0 0.02 0.61 0.00 93 1054.3
20260503183412 58 292 0.0 0.0 0.00 0.59 0.00 93 1054.3
20260503183252 58 270 0.0 0.0 0.00 0.59 0.00 93 1054.2
20260503183146 58 292 0.0 0.0 0.00 0.59 0.00 92 1054.3
20260503183025 58 292 0.0 0.0 0.00 0.59 0.00 93 1054.2
20260503182903 58 292 0.0 0.0 0.00 0.59 0.00 92 1054.1
20260503182750 58 315 0.0 0.0 0.00 0.59 0.00 93 1054.1
20260503182629 59 270 0.0 0.0 0.00 0.59 0.00 92 1054.2
20260503182507 59 292 0.0 0.0 0.00 0.59 0.00 92 1054.2
20260503182339 59 292 0.0 0.0 0.00 0.59 0.00 92 1054.1
20260503182219 59 292 0.0 0.0 0.00 0.59 0.00 92 1054.2
20260503182114 59 292 0.0 0.0 0.00 0.59 0.00 92 1054.1
20260503182009 59 292 0.0 0.0 0.00 0.59 0.00 92 1054.1
20260503181854 59 315 0.0 0.0 0.00 0.59 0.00 92 1054.1
20260503181742 59 292 0.0 0.0 0.00 0.59 0.00 92 1054.1
20260503181629 59 270 0.0 0.0 0.00 0.59 0.00 92 1054.1
20260503181516 59 270 0.0 0.0 0.00 0.59 0.00 92 1054.0
20260503181412 59 270 0.0 0.0 0.00 0.59 0.00 92 1054.0
20260503181305 59 270 0.0 0.0 0.00 0.59 0.00 92 1054.0
20260503181143 59 270 0.0 0.0 0.00 0.59 0.00 92 1054.0
20260503181022 59 270 0.0 0.0 0.00 0.59 0.00 92 1054.1
20260503180909 59 270 0.0 0.0 0.00 0.59 0.00 92 1054.1
20260503180755 59 270 0.0 0.0 0.00 0.59 0.00 92 1054.0
20260503180636 59 247 0.0 0.0 0.00 0.59 0.00 92 1054.1
20260503180529 59 270 0.0 0.0 0.00 0.59 0.00 92 1054.1
20260503180408 59 247 0.0 0.0 0.00 0.59 0.00 92 1054.1
20260503180239 59 202 0.0 0.0 0.00 0.59 0.00 92 1054.1
20260503180128 59 202 0.0 0.0 0.00 0.59 0.00 92 1054.1
20260503180021 59 202 0.0 0.0 0.00 0.59 0.00 92 1054.1
20260503175854 59 202 0.0 0.0 0.00 0.59 0.00 92 1054.0
20260503175747 59 202 0.0 0.0 0.00 0.59 0.00 92 1054.1
20260503175633 59 202 0.0 0.0 0.00 0.59 0.00 92 1054.1
20260503175514 59 202 0.0 0.0 0.00 0.59 0.00 92 1054.1
20260503175401 59 202 0.0 0.0 0.00 0.59 0.00 92 1054.0
20260503175254 59 202 0.0 0.0 0.00 0.59 0.00 92 1054.0
20260503175140 59 202 0.0 0.0 0.00 0.59 0.00 92 1053.9
20260503175020 58 202 0.0 0.0 0.00 0.59 0.00 92 1053.9
20260503174859 58 202 0.0 0.0 0.00 0.59 0.00 92 1053.9
20260503174739 59 202 0.0 0.0 0.02 0.59 0.00 92 1053.9
20260503174624 58 202 0.0 0.0 0.02 0.59 0.00 92 1053.8
20260503174511 58 202 0.0 0.0 0.02 0.59 0.00 92 1053.9
20260503174357 58 202 0.0 0.0 0.02 0.59 0.00 92 1054.0
20260503174228 58 202 0.0 0.0 0.02 0.59 0.00 92 1053.9
20260503174108 58 202 0.0 0.0 0.02 0.59 0.00 92 1053.9
20260503174002 58 225 0.0 0.0 0.02 0.59 0.00 92 1053.9
20260503173841 58 225 0.0 0.0 0.02 0.59 0.00 92 1053.9
20260503173728 58 225 0.0 0.0 0.02 0.59 0.00 92 1053.9
20260503173606 58 225 0.0 0.0 0.02 0.59 0.00 92 1053.9
20260503173447 58 225 0.0 0.0 0.04 0.59 0.00 92 1054.0
20260503173340 58 225 0.0 0.0 0.04 0.59 0.00 92 1054.0
20260503173219 58 225 0.0 0.0 0.04 0.59 0.00 92 1054.0
20260503173058 58 225 0.0 0.0 0.04 0.59 0.00 92 1054.0
20260503172936 58 225 0.0 0.0 0.04 0.59 0.00 92 1054.0
20260503172823 58 225 0.0 0.0 0.04 0.59 0.00 92 1053.9
20260503172654 58 225 0.0 0.0 0.04 0.59 0.00 92 1054.0
20260503172541 58 225 0.0 0.0 0.04 0.59 0.00 92 1054.0
20260503172420 58 225 0.0 0.0 0.04 0.59 0.00 92 1054.0
20260503172306 58 225 0.0 0.0 0.04 0.59 0.00 92 1054.0
20260503172153 58 225 0.0 0.0 0.04 0.59 0.00 92 1054.0
20260503172024 58 225 0.0 0.0 0.04 0.59 0.00 92 1054.0
20260503171910 58 225 0.0 0.0 0.04 0.59 0.00 92 1053.9
20260503171741 58 225 0.0 0.0 0.04 0.59 0.00 92 1053.9
20260503171613 58 225 0.0 0.0 0.04 0.59 0.00 92 1053.8
20260503171510 58 225 0.0 0.0 0.04 0.59 0.00 92 1053.9
20260503171405 58 225 0.0 0.0 0.04 0.59 0.00 92 1053.9
20260503171258 58 225 0.0 0.0 0.04 0.59 0.00 92 1053.9
20260503171144 58 315 0.0 0.0 0.04 0.59 0.00 92 1053.9
20260503171030 58 315 0.0 0.0 0.04 0.59 0.00 92 1053.9
20260503170912 58 0 0.0 0.0 0.04 0.59 0.00 92 1053.9
20260503170757 58 0 0.0 0.0 0.06 0.59 0.00 92 1053.8
20260503170646 58 0 0.0 0.0 0.06 0.59 0.00 92 1053.9
20260503170538 58 0 0.0 0.0 0.06 0.59 0.00 92 1053.9
20260503170426 58 0 0.0 0.0 0.06 0.59 0.00 92 1053.9
20260503170313 58 0 0.0 0.0 0.06 0.59 0.00 92 1053.9
20260503170202 58 0 0.0 0.0 0.06 0.59 0.00 92 1053.9
20260503160113 58 67 0.0 0.0 0.02 0.53 0.00 91 1053.7
20260503150919 58 45 0.0 0.0 0.31 0.51 0.00 92 1054.0
20260503150805 58 22 0.0 0.0 0.31 0.51 0.00 92 1054.0
20260503150654 58 45 0.0 0.0 0.31 0.51 0.00 92 1053.9
20260503150549 58 45 0.0 0.0 0.31 0.51 0.00 92 1054.0
20260503150444 58 22 0.0 0.0 0.31 0.51 0.00 92 1053.9
20260503150338 58 22 0.0 0.0 0.33 0.51 0.00 92 1054.0
20260503150233 58 0 10.0 0.0 0.33 0.51 0.00 92 1053.9
20260503150129 58 22 7.0 0.0 0.33 0.51 0.00 92 1053.9
20260503140235 59 22 0.0 0.0 0.00 0.18 0.00 88 1053.4
20260503140131 59 22 6.0 0.0 0.00 0.18 0.00 88 1053.4
20260503131409 64 0 4.0 0.0 0.00 0.18 0.00 78 1053.7
20260503131256 64 0 3.0 0.0 0.00 0.18 0.00 78 1053.7
20260503131150 64 22 4.0 0.0 0.00 0.18 0.00 77 1053.7
20260503131036 65 22 5.0 0.0 0.00 0.18 0.00 77 1053.8
20260503130924 65 0 5.0 0.0 0.00 0.18 0.00 76 1053.7
20260503130819 65 22 7.0 0.0 0.00 0.18 0.00 76 1053.9
20260503130657 66 0 8.0 0.0 0.00 0.18 0.00 75 1053.9
20260503130537 66 22 3.0 0.0 0.00 0.18 0.00 75 1054.0
20260503130434 66 45 6.0 0.0 0.00 0.18 0.00 74 1054.0
20260503130327 66 337 8.0 0.0 0.00 0.18 0.00 75 1054.0
20260503130222 67 0 0.0 0.0 0.00 0.18 0.00 74 1054.2
20260503130108 67 22 6.0 0.0 0.00 0.18 0.00 73 1054.1
20260503120132 70 45 9.0 0.0 0.00 0.18 0.00 72 1054.8
20260503110826 76 247 0.0 0.0 0.00 0.18 0.00 58 1055.1
20260503110704 76 247 0.0 0.0 0.00 0.18 0.00 58 1055.1
20260503110543 76 247 0.0 0.0 0.00 0.18 0.00 58 1055.2
20260503110421 76 247 0.0 0.0 0.00 0.18 0.00 58 1055.1
20260503110302 76 247 0.0 0.0 0.00 0.18 0.00 58 1055.1
20260503110148 76 247 4.0 0.0 0.00 0.18 0.00 58 1055.1
20260503100206 78 157 0.0 0.0 0.00 0.18 0.00 53 1055.5
20260503090500 76 135 3.0 0.0 0.00 0.18 0.00 61 1055.7
20260503090354 76 135 3.0 0.0 0.00 0.18 0.00 62 1055.8
20260503090233 76 90 2.0 0.0 0.00 0.18 0.00 64 1055.8
20260503090114 75 157 0.0 0.0 0.00 0.18 0.00 65 1055.8
20260503081605 61 45 3.0 0.0 0.00 0.18 0.00 84 1056.3
20260503081445 61 45 0.0 0.0 0.00 0.18 0.00 84 1056.4
20260503081339 61 67 4.0 0.0 0.00 0.18 0.00 84 1056.3
20260503081233 61 90 0.0 0.0 0.00 0.18 0.00 84 1056.4
20260503081110 61 112 3.0 0.0 0.00 0.18 0.00 84 1056.3
20260503080949 62 22 4.0 0.0 0.00 0.18 0.00 84 1056.4
20260503080828 62 45 3.0 0.0 0.00 0.18 0.00 85 1056.3
20260503080714 62 45 1.0 0.0 0.00 0.18 0.00 85 1056.3
20260503080601 62 67 0.0 0.0 0.00 0.18 0.00 85 1056.3
20260503080454 62 45 3.0 0.0 0.00 0.18 0.00 85 1056.3
20260503080326 62 112 0.0 0.0 0.00 0.18 0.00 85 1056.3
20260503080220 62 112 5.0 0.0 0.00 0.18 0.00 85 1056.2
20260503080115 62 90 0.0 0.0 0.00 0.18 0.00 85 1056.2
20260503072926 61 45 0.0 0.0 0.00 0.18 0.00 86 1056.4
20260503072819 61 45 0.0 0.0 0.00 0.18 0.00 86 1056.3
20260503072658 61 45 0.0 0.0 0.00 0.18 0.00 86 1056.3
20260503072546 61 45 0.0 0.0 0.00 0.18 0.00 86 1056.3
20260503072432 61 45 0.0 0.0 0.00 0.18 0.00 87 1056.2
20260503072318 61 45 0.0 0.0 0.00 0.18 0.00 87 1056.3
20260503072156 61 45 0.0 0.0 0.00 0.18 0.00 87 1056.3
20260503072037 61 45 0.0 0.0 0.00 0.18 0.00 88 1056.4
20260503071925 62 45 0.0 0.0 0.00 0.18 0.00 88 1056.4
20260503071810 62 45 0.0 0.0 0.00 0.18 0.00 88 1056.4
20260503071650 62 45 0.0 0.0 0.00 0.18 0.00 88 1056.3
20260503071544 62 45 0.0 0.0 0.00 0.18 0.00 88 1056.4
20260503071431 62 45 0.0 0.0 0.00 0.18 0.00 88 1056.5
20260503071318 62 45 0.0 0.0 0.00 0.18 0.00 88 1056.5
20260503071204 62 45 0.0 0.0 0.00 0.18 0.00 88 1056.5
20260503071046 62 45 0.0 0.0 0.00 0.18 0.00 89 1056.6
20260503070941 62 45 0.0 0.0 0.00 0.18 0.00 89 1056.5
20260503070835 62 45 0.0 0.0 0.00 0.18 0.00 89 1056.5
20260503070729 62 45 0.0 0.0 0.00 0.18 0.00 89 1056.5
20260503070615 62 45 0.0 0.0 0.00 0.18 0.00 89 1056.4
20260503070447 62 45 0.0 0.0 0.00 0.18 0.00 89 1056.4
20260503070341 62 45 0.0 0.0 0.00 0.18 0.00 90 1056.5
20260503070228 62 45 0.0 0.0 0.00 0.18 0.00 90 1056.4
20260503070123 62 45 0.0 0.0 0.00 0.18 0.00 90 1056.4
20260503060243 60 112 0.0 0.0 0.00 0.18 0.00 92 1056.5
20260503060130 60 112 0.0 0.0 0.00 0.18 0.00 92 1056.4
20260503055033 57 157 0.0 0.0 0.00 0.18 0.00 93 1056.4
20260503054927 57 157 0.0 0.0 0.00 0.18 0.00 93 1056.4
20260503054821 57 157 0.0 0.0 0.00 0.18 0.00 94 1056.4
20260503054709 57 157 0.0 0.0 0.00 0.18 0.00 94 1056.5
20260503054603 56 157 0.0 0.0 0.00 0.18 0.00 94 1056.4
20260503054450 56 157 0.0 0.0 0.00 0.18 0.00 94 1056.5
20260503054339 56 157 0.0 0.0 0.00 0.18 0.00 94 1056.4
20260503054232 56 157 0.0 0.0 0.00 0.18 0.00 94 1056.4
20260503054111 56 157 0.0 0.0 0.00 0.18 0.00 94 1056.4
20260503054008 56 157 0.0 0.0 0.00 0.18 0.00 94 1056.4
20260503053859 56 157 0.0 0.0 0.00 0.18 0.00 94 1056.3
20260503053746 56 157 0.0 0.0 0.00 0.18 0.00 94 1056.4
20260503053633 55 157 0.0 0.0 0.00 0.18 0.00 94 1056.4
20260503053511 55 157 0.0 0.0 0.00 0.18 0.00 94 1056.3
20260503053336 55 157 0.0 0.0 0.00 0.18 0.00 94 1056.4
20260503053231 55 157 0.0 0.0 0.00 0.18 0.00 94 1056.4
20260503053124 55 157 0.0 0.0 0.00 0.18 0.00 94 1056.4
20260503053003 55 157 0.0 0.0 0.00 0.18 0.00 94 1056.4
20260503052841 55 157 0.0 0.0 0.00 0.18 0.00 94 1056.4
20260503052728 55 135 0.0 0.0 0.00 0.18 0.00 94 1056.4
20260503052624 55 135 0.0 0.0 0.00 0.18 0.00 94 1056.4
20260503052510 55 135 0.0 0.0 0.00 0.18 0.00 94 1056.4
20260503052357 55 135 0.0 0.0 0.00 0.18 0.00 94 1056.4
20260503052244 54 135 0.0 0.0 0.00 0.18 0.00 94 1056.4
20260503052131 54 135 0.0 0.0 0.00 0.18 0.00 94 1056.4
20260503052025 54 135 0.0 0.0 0.00 0.18 0.00 94 1056.5
20260503051904 54 157 2.0 0.0 0.00 0.18 0.00 93 1056.4
20260503051751 54 135 0.0 0.0 0.00 0.18 0.00 94 1056.4
20260503051638 54 135 0.0 0.0 0.00 0.18 0.00 94 1056.4
20260503051516 54 135 0.0 0.0 0.00 0.18 0.00 94 1056.3
20260503051404 54 135 0.0 0.0 0.00 0.18 0.00 93 1056.3
20260503051251 54 135 0.0 0.0 0.00 0.18 0.00 93 1056.3
20260503051146 54 135 0.0 0.0 0.00 0.18 0.00 93 1056.3
20260503051040 54 135 0.0 0.0 0.00 0.18 0.00 93 1056.3
20260503050921 54 135 0.0 0.0 0.00 0.18 0.00 93 1056.2
20260503050815 54 135 0.0 0.0 0.00 0.18 0.00 93 1056.3
20260503050709 54 135 0.0 0.0 0.00 0.18 0.00 93 1056.2
20260503050555 54 135 0.0 0.0 0.00 0.18 0.00 93 1056.2
20260503050433 54 135 0.0 0.0 0.00 0.18 0.00 93 1056.3
20260503050313 54 135 0.0 0.0 0.00 0.18 0.00 93 1056.2
20260503050207 54 135 0.0 0.0 0.00 0.18 0.00 93 1056.2
20260503050053 54 112 0.0 0.0 0.00 0.18 0.00 93 1056.1
20260503045939 53 112 0.0 0.0 0.00 0.18 0.00 93 1056.2
20260503045818 53 135 0.0 0.0 0.00 0.18 0.00 93 1056.3
20260503045704 53 135 0.0 0.0 0.00 0.18 0.00 93 1056.2
20260503045545 53 135 0.0 0.0 0.00 0.18 0.00 93 1056.2
20260503045439 53 135 0.0 0.0 0.00 0.18 0.00 93 1056.2
20260503045326 53 135 0.0 0.0 0.00 0.18 0.00 93 1056.2
20260503045213 53 135 0.0 0.0 0.00 0.18 0.00 93 1056.1
20260503045108 53 135 0.0 0.0 0.02 0.18 0.00 93 1056.1
20260503044939 53 135 0.0 0.0 0.02 0.18 0.00 93 1056.0
20260503044833 53 135 0.0 0.0 0.02 0.18 0.00 93 1056.1
20260503044720 53 135 0.0 0.0 0.02 0.18 0.00 93 1056.0
20260503044606 53 135 0.0 0.0 0.02 0.18 0.00 93 1056.0
20260503044448 53 112 0.0 0.0 0.02 0.18 0.00 93 1056.0
20260503044340 53 112 0.0 0.0 0.04 0.18 0.00 93 1056.0
20260503044228 53 112 0.0 0.0 0.04 0.18 0.00 93 1055.9
20260503044123 53 112 0.0 0.0 0.04 0.18 0.00 93 1056.0
20260503044018 53 90 0.0 0.0 0.04 0.18 0.00 93 1055.8
20260503043912 53 90 0.0 0.0 0.06 0.18 0.00 93 1055.9
20260503043759 53 90 0.0 0.0 0.06 0.18 0.00 93 1055.9
20260503043646 53 90 0.0 0.0 0.06 0.18 0.00 93 1055.9
20260503043533 53 112 0.0 0.0 0.08 0.18 0.00 93 1055.9
20260503043421 53 112 5.0 0.0 0.08 0.18 0.00 93 1055.9
20260503043301 53 112 0.0 0.0 0.08 0.18 0.00 93 1055.9
20260503043154 53 112 6.0 0.0 0.16 0.18 0.00 93 1055.9
20260503043043 53 112 0.0 0.0 0.16 0.18 0.00 93 1056.0
20260503042938 53 112 0.0 0.0 0.16 0.18 0.00 93 1056.0
20260503042832 53 112 0.0 0.0 0.16 0.18 0.00 93 1056.0
20260503042725 53 112 0.0 0.0 0.16 0.18 0.00 93 1055.9
20260503042613 53 112 0.0 0.0 0.16 0.18 0.00 93 1056.0
20260503042242 53 112 0.0 0.0 0.18 0.18 0.00 93 1056.0
20260503042136 53 112 3.0 0.0 0.18 0.18 0.00 93 1056.1
20260503042023 53 135 4.0 0.0 0.18 0.18 0.00 93 1056.1
20260503041910 53 135 2.0 0.0 0.18 0.18 0.00 93 1056.2
20260503041805 53 112 4.0 0.0 0.18 0.18 0.00 93 1056.2
20260503041652 53 90 0.0 0.0 0.18 0.18 0.00 93 1056.2
20260503041539 53 90 2.0 0.0 0.18 0.18 0.00 93 1056.3
20260503041435 53 112 4.0 0.0 0.18 0.18 0.00 93 1056.3
20260503041328 53 112 5.0 0.0 0.18 0.18 0.00 93 1056.3
20260503041216 53 90 0.0 0.0 0.18 0.18 0.00 93 1056.4
20260503041111 53 67 6.0 0.0 0.18 0.18 0.00 93 1056.4
20260503040958 53 90 6.0 0.0 0.18 0.18 0.00 93 1056.4
20260503040852 53 112 6.0 0.0 0.18 0.18 0.00 93 1056.4
20260503040733 53 112 4.0 0.0 0.18 0.18 0.00 93 1056.6
20260503040618 53 112 0.0 0.0 0.18 0.18 0.00 93 1056.7
20260503040457 53 112 0.0 0.0 0.18 0.18 0.00 93 1056.6
20260503040346 53 112 3.0 0.0 0.18 0.18 0.00 93 1056.7
20260503040232 53 135 4.0 0.0 0.18 0.18 0.00 93 1056.8
20260503040127 53 135 4.0 0.0 0.18 0.18 0.00 93 1056.8
20260503040021 53 112 0.0 0.0 0.18 0.18 0.00 93 1056.8
20260503035908 53 112 0.0 0.0 0.18 0.18 0.00 93 1056.9
20260503035754 53 112 0.0 0.0 0.18 0.18 0.00 93 1057.0
20260503035641 53 112 0.0 0.0 0.18 0.18 0.00 93 1056.9
20260503035530 53 112 2.0 0.0 0.16 0.16 0.00 93 1056.8
20260503035423 54 90 0.0 0.0 0.16 0.16 0.00 93 1056.7
20260503035310 54 90 5.0 0.0 0.16 0.16 0.00 92 1056.9
20260503035151 54 112 6.0 0.0 0.16 0.16 0.00 92 1056.7
20260503035043 54 112 2.0 0.0 0.16 0.16 0.00 92 1056.7
20260503034923 54 112 0.0 0.0 0.16 0.16 0.00 92 1056.8
20260503034818 54 90 5.0 0.0 0.16 0.16 0.00 92 1056.8
20260503034713 54 67 6.0 0.0 0.16 0.16 0.00 92 1056.8
20260503034608 54 90 0.0 0.0 0.16 0.16 0.00 92 1056.9
20260503034503 54 67 6.0 0.0 0.14 0.14 0.00 92 1056.8
20260503034358 54 112 4.0 0.0 0.14 0.14 0.00 92 1056.8
20260503034245 54 112 5.0 0.0 0.14 0.14 0.00 92 1057.0
20260503034132 54 90 0.0 0.0 0.14 0.14 0.00 92 1056.9
20260503034027 54 67 0.0 0.0 0.12 0.12 0.00 92 1057.0
20260503033923 54 45 1.0 0.0 0.12 0.12 0.00 92 1057.0
20260503033810 54 45 0.0 0.0 0.10 0.10 0.00 92 1057.1
20260503033704 54 45 0.0 0.0 0.10 0.10 0.00 92 1057.1
20260503033550 54 0 0.0 0.0 0.08 0.08 0.00 92 1057.2
20260503033436 54 315 0.0 0.0 0.06 0.06 0.00 92 1057.5
20260503033326 54 315 0.0 0.0 0.04 0.04 0.00 92 1057.6
20260503033219 53 315 0.0 0.0 0.02 0.02 0.00 92 1057.5
20260503033106 54 315 0.0 0.0 0.02 0.02 0.00 92 1057.5
20260503032952 53 315 0.0 0.0 0.02 0.02 0.00 92 1057.6
20260503032832 53 337 0.0 0.0 0.02 0.02 0.00 92 1057.6
20260503032726 53 337 0.0 0.0 0.00 0.00 0.00 92 1057.5
20260503032613 53 337 0.0 0.0 0.00 0.00 0.00 92 1057.5
20260503032500 53 337 0.0 0.0 0.00 0.00 0.00 92 1057.5
20260503032356 53 0 0.0 0.0 0.00 0.00 0.00 92 1057.5
20260503032246 53 0 0.0 0.0 0.00 0.00 0.00 92 1057.4
20260503032129 53 0 0.0 0.0 0.00 0.00 0.00 92 1057.4
20260503032026 53 0 0.0 0.0 0.00 0.00 0.00 92 1057.3
20260503031919 53 0 0.0 0.0 0.00 0.00 0.00 92 1057.3
20260503031816 53 0 0.0 0.0 0.00 0.00 0.00 92 1057.2
20260503031711 53 0 0.0 0.0 0.00 0.00 0.00 92 1057.2
20260503031556 53 0 0.0 0.0 0.00 0.00 0.00 92 1057.1
20260503031434 53 0 0.0 0.0 0.00 0.00 0.00 92 1057.2
20260503031321 53 0 0.0 0.0 0.00 0.00 0.00 92 1057.1
20260503031208 53 0 0.0 0.0 0.00 0.00 0.00 92 1057.1
20260503031055 53 0 0.0 0.0 0.00 0.00 0.00 92 1057.1
20260503030942 53 0 0.0 0.0 0.00 0.00 0.00 92 1057.2
20260503030837 53 0 0.0 0.0 0.00 0.00 0.00 92 1057.1
20260503030724 53 0 0.0 0.0 0.00 0.00 0.00 92 1057.2
20260503030610 53 0 0.0 0.0 0.00 0.00 0.00 92 1057.2
20260503030506 53 0 0.0 0.0 0.00 0.00 0.00 92 1057.1
20260503030402 53 0 0.0 0.0 0.00 0.00 0.00 92 1057.1
20260503030254 52 0 0.0 0.0 0.00 0.00 0.00 92 1057.2
20260503030141 52 0 0.0 0.0 0.00 0.00 0.00 92 1057.3
20260503030027 52 0 0.0 0.0 0.00 0.00 0.00 92 1057.3
20260503025907 52 22 0.0 0.0 0.00 0.00 0.00 92 1057.3
20260503025754 52 22 0.0 0.0 0.00 0.00 0.00 92 1057.3
20260503025647 52 22 0.0 0.0 0.00 0.00 0.00 92 1057.2
20260503025542 52 67 0.0 0.0 0.00 0.00 0.00 92 1057.2
20260503025419 52 90 0.0 0.0 0.00 0.00 0.00 92 1057.2
20260503025300 52 90 0.0 0.0 0.00 0.00 0.00 92 1057.2
20260503025153 52 90 0.0 0.0 0.00 0.00 0.00 92 1057.1
20260503025041 52 90 0.0 0.0 0.00 0.00 0.00 92 1057.1
20260503024928 52 90 0.0 0.0 0.00 0.00 0.00 92 1057.1
20260503024800 52 90 0.0 0.0 0.00 0.00 0.00 92 1057.0
20260503024647 52 90 0.0 0.0 0.00 0.00 0.00 92 1057.0
20260503024540 52 90 0.0 0.0 0.00 0.00 0.00 92 1057.0
20260503024419 52 90 0.0 0.0 0.00 0.00 0.00 92 1056.8
20260503024314 52 90 0.0 0.0 0.00 0.00 0.00 92 1056.8
20260503024208 52 90 0.0 0.0 0.00 0.00 0.00 92 1056.8
20260503024104 52 135 0.0 0.0 0.00 0.00 0.00 92 1056.7
20260503023959 52 135 0.0 0.0 0.00 0.00 0.00 92 1056.7
20260503023853 52 135 0.0 0.0 0.00 0.00 0.00 92 1056.8
20260503023733 52 135 0.0 0.0 0.00 0.00 0.00 92 1056.8
20260503023627 52 135 0.0 0.0 0.00 0.00 0.00 92 1056.8
20260503023522 52 135 0.0 0.0 0.00 0.00 0.00 92 1056.8
20260503023408 52 135 0.0 0.0 0.00 0.00 0.00 92 1056.8
20260503023256 52 135 0.0 0.0 0.00 0.00 0.00 92 1056.8
20260503023143 52 135 0.0 0.0 0.00 0.00 0.00 92 1056.8
20260503023032 52 135 0.0 0.0 0.00 0.00 0.00 92 1056.9
20260503022917 52 135 0.0 0.0 0.00 0.00 0.00 92 1056.9
20260503022811 52 135 0.0 0.0 0.00 0.00 0.00 92 1056.9
20260503022650 52 0 0.0 0.0 0.00 0.00 0.00 92 1057.1
20260503022530 52 135 0.0 0.0 0.00 0.00 0.00 92 1057.0
20260503022423 52 135 0.0 0.0 0.00 0.00 0.00 92 1057.2
20260503022311 52 135 0.0 0.0 0.00 0.00 0.00 92 1057.2
20260503022206 52 135 0.0 0.0 0.00 0.00 0.00 92 1057.2
20260503022044 52 135 0.0 0.0 0.00 0.00 0.00 92 1057.2
20260503021933 52 135 0.0 0.0 0.00 0.00 0.00 92 1057.0
20260503021829 52 135 0.0 0.0 0.00 0.00 0.00 92 1057.1
20260503021723 52 135 0.0 0.0 0.00 0.00 0.00 92 1057.3
20260503021618 52 135 0.0 0.0 0.00 0.00 0.00 92 1057.2
20260503021513 52 135 0.0 0.0 0.00 0.00 0.00 92 1057.2
20260503021400 52 135 0.0 0.0 0.00 0.00 0.00 92 1057.2
20260503021245 52 135 0.0 0.0 0.00 0.00 0.00 92 1057.2
20260503021127 52 135 0.0 0.0 0.00 0.00 0.00 92 1057.2
20260503021018 52 135 0.0 0.0 0.00 0.00 0.00 92 1057.2
20260503020856 52 135 0.0 0.0 0.00 0.00 0.00 92 1057.4
20260503020728 52 135 0.0 0.0 0.00 0.00 0.00 92 1057.3
20260503020601 52 135 0.0 0.0 0.00 0.00 0.00 92 1057.4
20260503020454 52 135 0.0 0.0 0.00 0.00 0.00 92 1057.4
20260503020341 52 135 0.0 0.0 0.00 0.00 0.00 92 1057.3
20260503020238 52 135 0.0 0.0 0.00 0.00 0.00 92 1057.3
20260503020130 52 135 0.0 0.0 0.00 0.00 0.00 92 1057.3
20260503020001 52 135 0.0 0.0 0.00 0.00 0.00 92 1057.4
20260503015840 52 135 0.0 0.0 0.00 0.00 0.00 92 1057.3
20260503015719 52 135 0.0 0.0 0.00 0.00 0.00 92 1057.3
20260503015606 52 135 0.0 0.0 0.00 0.00 0.00 92 1057.3
20260503015452 52 135 0.0 0.0 0.00 0.00 0.00 92 1057.3
20260503015332 52 135 0.0 0.0 0.00 0.00 0.00 92 1057.4
20260503015202 52 135 0.0 0.0 0.00 0.00 0.00 92 1057.4
20260503015050 52 135 0.0 0.0 0.00 0.00 0.00 92 1057.4
20260503014946 52 135 0.0 0.0 0.00 0.00 0.00 92 1057.4
20260503014839 52 135 0.0 0.0 0.00 0.00 0.00 92 1057.5
20260503014726 52 135 0.0 0.0 0.00 0.00 0.00 92 1057.4
20260503014623 52 135 0.0 0.0 0.00 0.00 0.00 92 1057.5
20260503014515 52 135 0.0 0.0 0.00 0.00 0.00 92 1057.5
20260503014355 52 135 0.0 0.0 0.00 0.00 0.00 92 1057.6
20260503014242 52 135 0.0 0.0 0.00 0.00 0.00 92 1057.7
20260503014128 52 135 0.0 0.0 0.00 0.00 0.00 92 1057.7
20260503014000 52 135 0.0 0.0 0.00 0.00 0.00 92 1057.7
20260503013856 52 135 0.0 0.0 0.00 0.00 0.00 92 1057.6
20260503013751 52 135 0.0 0.0 0.00 0.00 0.00 92 1057.6
20260503013644 52 135 0.0 0.0 0.00 0.00 0.00 92 1057.7
20260503013517 52 135 0.0 0.0 0.00 0.00 0.00 92 1057.7
20260503013409 52 135 0.0 0.0 0.00 0.00 0.00 92 1057.8
20260503013248 52 135 0.0 0.0 0.00 0.00 0.00 92 1057.7
20260503013126 52 135 0.0 0.0 0.00 0.00 0.00 92 1057.7
20260503013005 52 135 0.0 0.0 0.00 0.00 0.00 92 1057.8
20260503012847 52 135 0.0 0.0 0.00 0.00 0.00 92 1057.7
20260503012742 52 135 0.0 0.0 0.00 0.00 0.00 92 1057.8
20260503012635 52 157 0.0 0.0 0.00 0.00 0.00 92 1057.7
20260503012521 52 157 0.0 0.0 0.00 0.00 0.00 92 1057.7
20260503012352 52 157 4.0 0.0 0.00 0.00 0.00 92 1057.8
20260503012230 52 90 0.0 0.0 0.00 0.00 0.00 92 1057.7
20260503012101 52 45 0.0 0.0 0.00 0.00 0.00 92 1057.6
20260503011948 52 45 0.0 0.0 0.00 0.00 0.00 92 1057.6
20260503011827 52 90 0.0 0.0 0.00 0.00 0.00 92 1057.7
20260503011658 52 90 0.0 0.0 0.00 0.00 0.00 92 1057.7
20260503011546 52 90 0.0 0.0 0.00 0.00 0.00 92 1057.8
20260503011441 52 90 0.0 0.0 0.00 0.00 0.00 92 1057.7
20260503011325 52 90 0.0 0.0 0.00 0.00 0.00 92 1057.7
20260503011214 52 67 0.0 0.0 0.00 0.00 0.00 92 1057.7
20260503011109 52 67 0.0 0.0 0.00 0.00 0.00 92 1057.6
20260503011003 51 67 3.0 0.0 0.00 0.00 0.00 92 1057.6
20260503010834 51 90 3.0 0.0 0.00 0.00 0.00 92 1057.5
20260503010721 51 45 0.0 0.0 0.00 0.00 0.00 92 1057.6
20260503010609 51 90 0.0 0.0 0.00 0.00 0.00 92 1057.5
20260503010438 51 90 0.0 0.0 0.00 0.00 0.00 92 1057.5
20260503010318 51 90 0.0 0.0 0.00 0.00 0.00 92 1057.5
20260503005931 51 67 0.0 0.0 0.00 0.00 0.00 92 1057.4
20260503005825 51 45 0.0 0.0 0.00 0.00 0.00 92 1057.5
20260503005712 51 45 0.0 0.0 0.00 0.00 0.00 92 1057.4
20260503005558 51 45 0.0 0.0 0.00 0.00 0.00 92 1057.5
20260503005429 51 45 0.0 0.0 0.00 0.00 0.00 92 1057.6
20260503005315 51 45 0.0 0.0 0.00 0.00 0.00 92 1057.6
20260503005156 51 45 0.0 0.0 0.00 0.00 0.00 92 1057.6
20260503005051 51 45 0.0 0.0 0.00 0.00 0.00 92 1057.7
20260503004946 51 45 0.0 0.0 0.00 0.00 0.00 92 1057.7
20260503004840 51 45 0.0 0.0 0.00 0.00 0.00 92 1057.7
20260503004726 51 45 0.0 0.0 0.00 0.00 0.00 92 1057.8
20260503004559 51 45 0.0 0.0 0.00 0.00 0.00 92 1057.8
20260503004452 51 45 0.0 0.0 0.00 0.00 0.00 92 1057.8
20260503004330 51 45 0.0 0.0 0.00 0.00 0.00 92 1057.8
20260503004201 51 45 0.0 0.0 0.00 0.00 0.00 92 1057.8
20260503004049 51 45 0.0 0.0 0.00 0.00 0.00 92 1057.8
20260503003946 51 45 0.0 0.0 0.00 0.00 0.00 92 1057.8
20260503003827 51 90 0.0 0.0 0.00 0.00 0.00 92 1057.9
20260503003557 51 45 0.0 0.0 0.00 0.00 0.00 92 1057.9
20260503003330 51 45 0.0 0.0 0.00 0.00 0.00 92 1057.8
20260503003217 51 45 0.0 0.0 0.00 0.00 0.00 92 1057.9
20260503003105 51 45 0.0 0.0 0.00 0.00 0.00 92 1057.9
20260503002952 52 45 0.0 0.0 0.00 0.00 0.00 92 1058.0
20260503002844 52 45 0.0 0.0 0.00 0.00 0.00 92 1057.9
20260503002723 52 45 0.0 0.0 0.00 0.00 0.00 92 1058.0
20260503002554 52 45 0.0 0.0 0.00 0.00 0.00 92 1058.1
20260503002449 52 45 0.0 0.0 0.00 0.00 0.00 92 1058.1
20260503002338 52 45 0.0 0.0 0.00 0.00 0.00 92 1058.2
20260503002229 52 45 0.0 0.0 0.00 0.00 0.00 92 1058.2
20260503002118 52 45 0.0 0.0 0.00 0.00 0.00 92 1058.1
20260503002006 52 45 0.0 0.0 0.00 0.00 0.00 92 1058.2
20260503001901 52 45 0.0 0.0 0.00 0.00 0.00 92 1058.2
20260503001739 52 45 0.0 0.0 0.00 0.00 0.00 92 1058.2
20260503001633 52 45 0.0 0.0 0.00 0.00 0.00 92 1058.2
20260503001519 52 45 0.0 0.0 0.00 0.00 0.00 92 1058.2
20260503001358 52 45 0.0 0.0 0.00 0.00 0.00 92 1058.2
20260503001245 52 45 0.0 0.0 0.00 0.00 0.00 92 1058.2
20260503001132 52 45 0.0 0.0 0.00 0.00 0.00 92 1058.2
20260503001011 52 45 0.0 0.0 0.00 0.00 0.00 92 1058.2
20260503000906 52 45 0.0 0.0 0.00 0.00 0.00 92 1058.2
20260503000752 52 45 0.0 0.0 0.00 0.00 0.00 92 1058.3
20260503000631 52 67 0.0 0.0 0.00 0.00 0.00 92 1058.4
20260503000519 52 112 0.0 0.0 0.00 0.00 0.00 92 1058.4
20260503000416 52 135 0.0 0.0 0.00 0.00 0.00 92 1058.4
20260503000308 52 135 0.0 0.0 0.00 0.00 0.00 92 1058.5
20260503000155 52 135 0.0 0.0 0.00 0.00 0.00 92 1058.6
20260503000033 52 135 0.0 0.0 0.00 0.00 0.00 92 1058.6
20260502235914 52 135 0.0 0.0 0.00 0.00 0.00 92 1058.6
20260502235808 52 135 0.0 0.0 0.00 0.00 0.00 92 1058.7
20260502235638 52 135 0.0 0.0 0.00 0.00 0.00 92 1058.9
20260502235524 52 135 0.0 0.0 0.00 0.00 0.00 92 1058.9
20260502235410 52 135 0.0 0.0 0.00 0.00 0.00 92 1058.9
20260502235250 52 135 0.0 0.0 0.00 0.00 0.00 92 1058.9
20260502235147 52 135 0.0 0.0 0.00 0.00 0.00 92 1059.2
20260502235040 52 157 0.0 0.0 0.00 0.00 0.00 92 1059.3
20260502234926 52 157 0.0 0.0 0.00 0.00 0.00 92 1059.4
20260502234815 52 157 0.0 0.0 0.00 0.00 0.00 92 1059.4
20260502234708 52 157 0.0 0.0 0.00 0.00 0.00 92 1059.4
20260502234540 52 157 0.0 0.0 0.00 0.00 0.00 92 1059.4
20260502234433 52 157 0.0 0.0 0.00 0.00 0.00 92 1059.3
20260502234320 52 157 0.0 0.0 0.00 0.00 0.00 92 1059.4
20260502234208 52 157 0.0 0.0 0.00 0.00 0.00 92 1059.4
20260502234100 52 135 0.0 0.0 0.00 0.00 0.00 92 1059.4
20260502233948 52 135 0.0 0.0 0.00 0.00 0.00 92 1059.5
20260502233834 52 135 0.0 0.0 0.00 0.00 0.00 92 1059.3
20260502233721 52 135 0.0 0.0 0.00 0.00 0.00 92 1059.4
20260502233608 52 135 0.0 0.0 0.00 0.00 0.00 92 1059.4
20260502233447 52 135 0.0 0.0 0.00 0.00 0.00 92 1059.4
20260502233325 52 135 0.0 0.0 0.00 0.00 0.00 92 1059.4
20260502233205 52 157 0.0 0.0 0.00 0.00 0.00 92 1059.5
20260502233051 52 135 0.0 0.0 0.00 0.00 0.00 92 1059.5
20260502232938 52 180 6.0 0.0 0.00 0.00 0.00 92 1059.6
20260502232819 52 157 6.0 0.0 0.00 0.00 0.00 92 1059.8
20260502232712 52 180 6.0 0.0 0.00 0.00 0.00 92 1059.8
20260502232600 52 157 5.0 0.0 0.00 0.00 0.00 92 1059.8
20260502232453 52 180 10.0 0.0 0.00 0.00 0.00 92 1059.8
20260502232348 51 157 5.0 0.0 0.00 0.00 0.00 92 1059.8
20260502232245 51 157 8.0 0.0 0.00 0.00 0.00 92 1059.8
20260502232138 51 180 6.0 0.0 0.00 0.00 0.00 92 1059.8
20260502232033 51 135 6.0 0.0 0.00 0.00 0.00 92 1059.9
20260502231913 51 202 9.0 0.0 0.00 0.00 0.00 91 1059.8
20260502231808 51 180 4.0 0.0 0.00 0.00 0.00 91 1059.9
20260502231653 51 135 5.0 0.0 0.00 0.00 0.00 91 1059.8
20260502231541 51 180 5.0 0.0 0.00 0.00 0.00 90 1059.8
20260502231435 51 157 0.0 0.0 0.00 0.00 0.00 90 1059.7
20260502231330 51 135 0.0 0.0 0.00 0.00 0.00 90 1059.6
20260502231219 51 157 0.0 0.0 0.00 0.00 0.00 90 1059.5
20260502231111 51 247 0.0 0.0 0.00 0.00 0.00 90 1059.4
20260502230950 51 247 0.0 0.0 0.00 0.00 0.00 90 1059.4
20260502230836 51 270 0.0 0.0 0.00 0.00 0.00 90 1059.4
20260502230724 51 292 0.0 0.0 0.00 0.00 0.00 90 1059.4
20260502230603 51 315 0.0 0.0 0.00 0.00 0.00 90 1059.4
20260502230457 50 315 0.0 0.0 0.00 0.00 0.00 90 1059.3
20260502230350 50 315 0.0 0.0 0.00 0.00 0.00 90 1059.2
20260502230236 50 315 0.0 0.0 0.00 0.00 0.00 90 1059.2
20260502230129 50 315 0.0 0.0 0.00 0.00 0.00 90 1059.2
20260502230018 50 315 0.0 0.0 0.00 0.00 0.00 90 1059.2
20260502225909 50 315 0.0 0.0 0.00 0.00 0.00 90 1059.2
20260502225755 50 315 0.0 0.0 0.00 0.00 0.00 90 1059.3
20260502225644 50 315 0.0 0.0 0.00 0.00 0.00 90 1059.3
20260502225535 51 315 0.0 0.0 0.00 0.00 0.00 90 1059.3
20260502225420 51 315 0.0 0.0 0.00 0.00 0.00 90 1059.4
20260502225250 51 315 0.0 0.0 0.00 0.00 0.00 90 1059.4
20260502225136 51 315 0.0 0.0 0.00 0.00 0.00 90 1059.4
20260502225031 51 315 0.0 0.0 0.00 0.00 0.00 90 1059.5
20260502224925 51 315 0.0 0.0 0.00 0.00 0.00 90 1059.5
20260502224817 51 315 0.0 0.0 0.00 0.00 0.00 90 1059.5
20260502224657 51 315 0.0 0.0 0.00 0.00 0.00 90 1059.4
20260502224541 51 315 0.0 0.0 0.00 0.00 0.00 90 1059.5
20260502224427 51 315 0.0 0.0 0.00 0.00 0.00 90 1059.5
20260502224322 51 315 0.0 0.0 0.00 0.00 0.00 90 1059.5
20260502224215 51 315 0.0 0.0 0.00 0.00 0.00 90 1059.5
20260502224109 51 315 0.0 0.0 0.00 0.00 0.00 89 1059.5
20260502224002 51 315 0.0 0.0 0.00 0.00 0.00 89 1059.5
20260502223842 51 315 0.0 0.0 0.00 0.00 0.00 89 1059.4
20260502223726 51 315 0.0 0.0 0.00 0.00 0.00 89 1059.4
20260502223611 51 315 0.0 0.0 0.00 0.00 0.00 89 1059.5
20260502223457 51 315 0.0 0.0 0.00 0.00 0.00 89 1059.5
20260502223334 51 315 0.0 0.0 0.00 0.00 0.00 89 1059.5
20260502223221 51 315 0.0 0.0 0.00 0.00 0.00 89 1059.5
20260502223108 51 315 0.0 0.0 0.00 0.00 0.00 89 1059.4
20260502223000 51 315 0.0 0.0 0.00 0.00 0.00 89 1059.4
20260502222840 51 315 0.0 0.0 0.00 0.00 0.00 89 1059.4
20260502222735 51 337 0.0 0.0 0.00 0.00 0.00 89 1059.3